Location: Dana
(41.8364°N, 106.7042°W)
Time: 19:03:58
(UTC+00:00)

Injun/Solrad 3 - Pass Details

Date: 12 May 2026
Orbit: 867 x 989 km, 66.8° (Epoch: 6 June)

Event Time Altitude Azimuth Distance (km) Brightness Sun altitude
Rises 08:29:13 0° 328° (NNW) 3,683 11.5 -26.8°
Reaches altitude 10° 08:31:46 10° 327° (NNW) 2,741 10.7 -26.6°
Maximum altitude 08:38:12 76° 243° (WSW) 1,019 7.9 -26.1°
Enters shadow 08:39:22 60° 179° (S) 1,118 8.0 -26.0°
Drops below altitude 10° 08:44:37 10° 159° (SSE) 2,734 - -25.6°
Sets 08:47:10 0° 157° (SSE) 3,672 - -25.4°
